This is the latest recevied weather packets stored in our database for station/object G1OCN-WX. If no packets are shown the sender has not sent any weather packets the latest 1 day(s).
| Time | Temp. | Humidity | Pressure | Rain* | Wind** | Luminosity | Snow |
|---|---|---|---|---|---|---|---|
| 1778050701 | 8.33° C | 86% | 1013.2 hPa | 0 mm | 5.81 m/s, 65° | - | - |
| 1778050641 | 8.33° C | 86% | 1013.2 hPa | 0 mm | 6.26 m/s, 64° | - | - |
| 1778050580 | 8.33° C | 86% | 1013.2 hPa | 0 mm | 6.26 m/s, 69° | - | - |
| 1778050520 | 8.33° C | 86% | 1013.2 hPa | 0 mm | 5.81 m/s, 64° | - | - |
| 1778050460 | 8.33° C | 85% | 1013.2 hPa | 0 mm | 6.26 m/s, 63° | - | - |
| 1778050400 | 8.33° C | 85% | 1013.2 hPa | 0 mm | 6.26 m/s, 62° | - | - |
| 1778050340 | 8.33° C | 85% | 1013.2 hPa | 0 mm | 5.81 m/s, 62° | - | - |
| 1778050280 | 8.33° C | 85% | 1013.2 hPa | 0 mm | 5.36 m/s, 64° | - | - |
| 1778050220 | 8.33° C | 85% | 1013.2 hPa | 0 mm | 5.36 m/s, 63° | - | - |
| 1778050160 | 8.33° C | 85% | 1013.2 hPa | 0 mm | 4.02 m/s, 64° | - | - |
| 1778050100 | 8.33° C | 85% | 1013.2 hPa | 0 mm | 4.47 m/s, 60° | - | - |
| 1778050040 | 8.33° C | 85% | 1013.2 hPa | 0 mm | 5.36 m/s, 63° | - | - |
| 1778049980 | 8.33° C | 85% | 1013.2 hPa | 0 mm | 5.81 m/s, 63° | - | - |
| 1778049919 | 8.33° C | 85% | 1013.2 hPa | 0 mm | 5.36 m/s, 64° | - | - |
| 1778049859 | 8.33° C | 85% | 1013.2 hPa | 0 mm | 4.02 m/s, 61° | - | - |
| 1778049799 | 8.33° C | 85% | 1013.2 hPa | 0 mm | 5.36 m/s, 61° | - | - |
| 1778049739 | 8.33° C | 85% | 1013.1 hPa | 0 mm | 5.36 m/s, 65° | - | - |
| 1778049679 | 8.33° C | 85% | 1013.2 hPa | 0 mm | 5.36 m/s, 63° | - | - |
| 1778049619 | 8.33° C | 85% | 1013.2 hPa | 0 mm | 5.81 m/s, 62° | - | - |
| 1778049559 | 8.33° C | 85% | 1013.2 hPa | 0 mm | 5.81 m/s, 67° | - | - |
| 1778049499 | 8.33° C | 85% | 1013.2 hPa | 0 mm | 5.81 m/s, 65° | - | - |
| 1778049439 | 8.33° C | 85% | 1013.2 hPa | 0 mm | 6.26 m/s, 70° | - | - |
| 1778049379 | 8.33° C | 85% | 1013.2 hPa | 0 mm | 6.26 m/s, 66° | - | - |
| 1778049319 | 8.33° C | 85% | 1013.2 hPa | 0 mm | 5.36 m/s, 64° | - | - |
| 1778049259 | 8.33° C | 85% | 1013.1 hPa | 0 mm | 4.47 m/s, 55° | - | - |
* Rain latest hour (hover to see other rain measurements)
** Current wind speed in m/s (hover to see current wind gust speed)